Regional Weather Roundup
Issued by NWS

Home | Current Version | Previous Version | Graphics & Text | Print | Product List | Glossary On
Versions: 1 2 3 4 5 6 7 8 9 10 11 12 13 14 15 16 17 18 19 20 21 22 23 24 25 26 27 28 29 30 31 32 33 34 35 36 37 38 39 40 41 42 43 44 45 46 47 48 49 50
884
ASUS43 KLMK 172202
RWRKY
KENTUCKY REGIONAL WEATHER ROUNDUP
NATIONAL WEATHER SERVICE LOUISVILLE KY
500 PM EST TUE JAN 17 2017

NOTE "FAIR" INDICATES FEW OR NO CLOUDS BELOW 12,000 FEET
WITH NO SIGNIFICANT WEATHER AND/OR OBSTRUCTIONS TO VISIBILITY.

KYZ001>023-026-027-061>063-070>075-172300-
WESTERN AND SOUTH CENTRAL KENTUCKY

CITY           SKY/WX    TMP DP  RH WIND       PRES   REMARKS
PADUCAH        CLOUDY    46  39  76 W14       30.10R
HENDERSON      CLOUDY    46  39  76 W12       30.06R
OWENSBORO      CLOUDY    48  43  82 NW13      30.06R
HOPKINSVILLE   CLOUDY    55  47  74 W12       30.05R
BOWLING GREEN  PTCLDY    59  46  62 W15G23    30.03R
GLASGOW        NOT AVBL
$$

KYZ024-025-028>034-038-045-046-053-172300-
NORTH CENTRAL KENTUCKY

CITY           SKY/WX    TMP DP  RH WIND       PRES   REMARKS
LOUISVILLE/SDF CLOUDY    54  43  66 W17G24    30.00R
LOUISVILLE/LOU CLOUDY    54  44  69 W12       30.00R
FORT KNOX      CLOUDY    51  45  78 W13       29.99R
$$

KYZ035>037-039>044-047>052-055>060-089>105-172300-
NORTHEAST KENTUCKY

CITY           SKY/WX    TMP DP  RH WIND       PRES   REMARKS
LEXINGTON      CLOUDY    60  50  69 W15G21    29.97R
COVINGTON      MOCLDY    53  43  68 W15       29.95R
FRANKFORT      CLOUDY    58  46  64 NW9       29.96R
$$

KYZ054-064>069-076>088-106>120-172300-
SOUTHEAST KENTUCKY

CITY           SKY/WX    TMP DP  RH WIND       PRES   REMARKS
JACKSON        LGT RAIN  61  56  83 SW8       29.97R
LONDON         CLOUDY    61  57  87 S9        29.99R
SOMERSET       CLOUDY    59  59 100 W13G20    30.01S
MIDDLESBORO    HVY RAIN  62  58  87 SW7G17    30.03R
MONTICELLO     LGT RAIN  61  59  93 W17       30.02R FOG
$$





USA.gov is the U.S. government's official web portal to all federal, state and local government web resources and services.